Regional Weather Roundup
Issued by NWS

Home | Current Version | Previous Version | Text Only | Print | Product List | Glossary Off
Versions: 1 2 3 4 5 6 7 8 9 10 11 12 13 14 15 16 17 18 19 20 21 22 23 24 25 26 27 28 29 30 31 32 33 34 35 36 37 38 39 40 41 42 43 44 45 46 47 48 49 50

000
ASUS43 KMPX 070401
RWRMN
WEATHER ROUNDUP FOR MINNESOTA
NATIONAL WEATHER SERVICE TWIN CITIES/CHANHASSEN MN
1100 PM CDT MON JUL 06 2015


NOTE: "FAIR" INDICATES FEW OR NO CLOUDS BELOW 12,000 FEET WITH NO
SIGNIFICANT WEATHER AND/OR OBSTRUCTIONS TO VISIBILITY. N/A MEANS
CURRENT SKY AND/OR WEATHER CONDITIONS ARE NOT AVAILABLE.

MNZ060>063-068>070-070500-
   Twin Cities Metro

CITY           SKY/WX    TMP DP  RH WIND       PRES   REMARKS
TWIN CITIES    PTCLDY    61  48  62 N14G24    30.04R
ST PAUL        CLEAR     60  48  64 N13G21    30.04R
CRYSTAL        CLEAR     61  48  62 NW9       30.04R
BLAINE         CLEAR     61  52  72 NW7       30.04S
LAKEVILLE      CLEAR     61  48  63 N9G17     30.04R
EDEN PRAIRIE   CLEAR     61  49  64 N12       30.03R
SOUTH ST PAUL  CLEAR     62  47  59 N10       30.03R
LAKE ELMO      MOCLDY    61  50  67 N7        30.04S
$$
MNZ001>005-007-008-013>017-022>024-027-028-070500-
   Northwest Minnesota

CITY           SKY/WX    TMP DP  RH WIND       PRES   REMARKS
BEMIDJI        CLOUDY    54  47  79 W3        30.12R
HALLOCK        CLEAR     54  48  82 NW5       30.13S
ROSEAU         CLEAR     54  46  76 NW5       30.12R
WARROAD        CLEAR     54  48  82 W6        30.11S
THIEF RVR FALL CLEAR     52  48  87 CALM      30.14R
CROOKSTON      FAIR      52  48  87 CALM      30.15R
FOSSTON        CLEAR     48  45  87 CALM      30.14R
DETROIT LAKES  PTCLDY    54  45  71 N5        30.15R
MOORHEAD       CLEAR     50  45  81 N5        30.16R
PARK RAPIDS    CLOUDY    55  46  71 NW6       30.12R
MAHNOMEN       MOCLDY    49  45  84 NW5       30.14R
$$
MNZ006-009>011-018-025>026-070500-
   North Central Minnesota

CITY           SKY/WX    TMP DP  RH WIND       PRES   REMARKS
BAUDETTE       CLEAR     51  46  83 W6        30.09R
FLAG ISLAND    CLEAR     57  46  67 W9        30.08R
INTL FALLS     CLOUDY    47  44  90 CALM      30.08R
WASKISH        MOCLDY    55  46  71 N5        30.11R
BIG FORK       MOCLDY    54  45  71 CALM      30.10R
LONGVILLE      CLOUDY    57  46  67 N5        30.10R
GRAND RAPIDS   CLOUDY    55  41  58 N10       30.09R
CRANE LAKE     CLOUDY    54  43  66 N9        30.08R
COOK           CLOUDY    54  45  71 CALM      30.07S
WALKER         CLOUDY    55  46  73 CALM      30.11R
$$
MNZ012-019>021-037-070500-
   Northeast Minnesota

CITY           SKY/WX    TMP DP  RH WIND       PRES   REMARKS
DULUTH         MOCLDY    56  45  66 N7        30.05R
ELY            CLOUDY    54  43  66 NW7       30.05R
HIBBING        CLOUDY    55  44  66 NW10      30.07R
DULUTH HARBOR    N/A     61  48  63 N9        30.05S
TWO HARBORS    CLOUDY    54  48  82 CALM      30.03R
SILVER BAY     CLOUDY    54  48  82 CALM      30.02S
GRAND MARAIS     N/A     50  47  89 NW5       30.01R
G MARAIS ARPRT PTCLDY    48  39  71 CALM      30.02R
$$
MNZ029>031-032-039>041-046>048-054>057-064-070500-
   West Central Minnesota

CITY           SKY/WX    TMP DP  RH WIND       PRES   REMARKS
FERGUS FALLS   CLEAR     54  46  76 N3        30.14R
WHEATON        CLEAR     54  48  82 N6        30.16R
MORRIS         CLEAR     55  50  82 N6        30.12S
ALEXANDRIA     CLEAR     57  46  66 N10       30.13R
ELBOW LAKE     FAIR      55  48  77 N5        30.13R
WADENA         CLEAR     48  43  81 NW5       30.12S
GLENWOOD       CLEAR     54  46  76 N6        30.13S
APPLETON       CLEAR     55  48  76 N6        30.13R
BENSON         CLEAR     54  46  76 N3        30.12S
ORTONVILLE     CLEAR     55  48  76 N6        30.14R
MADISON        CLEAR     57  48  72 N7        30.13S
WILLMAR        FAIR      55  48  76 N6        30.12F
$$
MNZ033>034-036-042>043-049>051-058-059-070500-
   Central Minnesota

CITY           SKY/WX    TMP DP  RH WIND       PRES   REMARKS
ST CLOUD       PTCLDY    57  46  66 NW8       30.08R
SAUK CENTRE    FAIR      55  46  72 N5        30.11S
PAYNESVILLE    CLEAR     50  46  87 CALM      30.11S
AITKIN         CLEAR     52  45  76 CALM      30.08R
PINE RIVER     CLOUDY    57  48  72 NW6       30.13R
BRAINERD       CLOUDY    58  46  64 NW10      30.10R
STAPLES        CLEAR     48  45  87 NW5       30.12R
LONG PRAIRIE   FAIR      52  45  76 NW5       30.12S
LITTLE FALLS   MOCLDY    55  45  67 NW5       30.10S
LITCHFIELD     CLEAR     57  48  72 NW8       30.09F
BUFFALO        CLEAR     57  47  69 NW7       30.06F
MAPLE LAKE     CLEAR     57  50  76 NW8       30.07F
$$
MNZ037-044-045-052-053-070500-
   East Central Minnesota

CITY           SKY/WX    TMP DP  RH WIND       PRES   REMARKS
PRINCETON      CLOUDY    61  50  67 NW9       30.06F
MORA           CLEAR     54  45  71 CALM      30.07S
CAMBRIDGE      CLEAR     57  46  67 NW5       30.03F
MOOSE LAKE     CLOUDY    55  46  71 CALM      30.04F
HINCKLEY       MOCLDY    54  50  87 NW6       30.05F
CLOQUET        CLOUDY    55  45  67 NW5       30.06R
MCGREGOR       CLOUDY    55  46  71 NW6       30.08R
$$
MNZ071>073-080-081-089-090-097-098-070500-
   Southwest Minnesota

CITY           SKY/WX    TMP DP  RH WIND       PRES   REMARKS
GRANITE FALLS  CLEAR     55  49  80 NW6       30.13S
CANBY          CLEAR     56  50  80 NW3       30.14S
MARSHALL       CLEAR     55  46  71 N9        30.10
REDWOOD FALLS  CLEAR     58  48  69 N8        30.08R
OLIVIA         CLEAR     54  45  71 N8        30.08F
PIPESTONE      CLEAR     57  52  82 N7        30.12R
WINDOM         CLEAR     55  50  82 NW7       30.09R
WORTHINGTON    CLEAR     55  48  76 N3        30.11R
JACKSON        CLEAR     59  50  72 N6        30.09R
TRACY          CLEAR     58  51  79 N10       30.11R
SLAYTON        CLEAR     57  51  81 NW10      30.12R
$$
MNZ065>067-074>077-082>085-091>093-070500-
   South Central Minnesota

CITY           SKY/WX    TMP DP  RH WIND       PRES   REMARKS
MANKATO        CLEAR     61  48  63 N13       30.06R
NEW ULM        CLEAR     57  46  67 N7        30.07R
ST JAMES       CLEAR     59  54  82 NW8       30.09R
FAIRMONT       PTCLDY    59  48  67 N6        30.06R
GLENCOE        CLEAR     57  50  77 NW6       30.07R
OWATONNA       MOCLDY    63  52  67 NW12      30.04R
WASECA         PTCLDY    59  52  77 N10       30.06R
ALBERT LEA     PTCLDY    63  54  72 NW9       30.03R
$$
MNZ078>079-086>088-094>096-070500-
   Southeast Minnesota

CITY           SKY/WX    TMP DP  RH WIND       PRES   REMARKS
ROCHESTER      CLOUDY    60  57  89 NW7       30.02R FOG
RED WING       PTCLDY    63  52  67 N12G18    30.00R
DODGE CENTER   MOCLDY    63  55  77 N8        30.02R HAZE
WINONA         PTCLDY    61  59  94 CALM      29.98S FOG
AUSTIN         MOCLDY    63  61  94 NW5       30.01R FOG
PRESTON        MOCLDY    58  55  89 N6        30.01R FOG
$$
ABBREVIATIONS USED IN REMARKS
   TC - TEMPERATURES IN CELSIUS
  WCI - WIND CHILL INDEX
   HX - HEAT INDEX
  VSB - VISIBILITY
$$



USA.gov is the U.S. government's official web portal to all federal, state and local government web resources and services.